Location: Clarion
(42.7316°N, 93.7330°W)
Time: 01:30:16
(UTC+00:00)

BREEZE-M DEB (TANK) - Pass Details

Date: 22 April 2026
Orbit: 311 x 13096 km, 49.6° (Epoch: 20 May)

Event Time Altitude Azimuth Distance (km) Brightness Sun altitude
Rises 03:14:04 0° 296° (WNW) 2,121 7.2 -21.5°
Reaches altitude 10° 03:15:36 10° 309° (NW) 1,452 6.1 -21.7°
Maximum altitude 03:18:13 33° 17° (NNE) 998 4.3 -22.0°
Enters shadow 03:21:17 18° 71° (ENE) 2,057 5.4 -22.4°
